Theta_e
309 309 311 311 312 313 313 314 314 314 315 316 314 314 317 317 314 312 311 311 312 313 311 312 312 310 310 310 309 310 310 310 310 310 310 311 311 311 311 311 312 312 311 312 312 312 313 312 312 313 311 310 311 310 310 312 313 313 313 312 312 314 316 316 316 313 312 311 311 311 311 311 312 311 312 312 312 312 314 318 320 319 319 321 322 324 329
310 309 311 311 312 313 314 314 314 314 314 315 315 319 323 320 316 314 312 310 311 313 312 312 312 310 310 310 310 309 309 309 310 310 310 311 310 311 311 311 312 312 311 311 312 312 313 313 312 312 312 310 311 310 309 313 315 314 316 315 312 313 315 316 317 315 314 314 313 312 312 312 312 312 311 312 313 312 313 317 321 320 319 320 321 323 328
311 309 310 311 311 313 313 314 314 314 314 314 315 320 321 318 316 315 313 310 311 311 310 311 312 311 311 311 310 310 310 309 309 309 309 309 309 311 311 310 310 311 311 311 311 311 312 313 311 311 311 310 311 310 309 312 315 315 317 318 313 313 314 316 316 315 314 316 315 314 314 313 311 311 311 311 312 312 314 318 320 319 319 320 321 323 329
312 309 310 312 311 312 313 314 314 313 314 314 313 314 315 314 314 315 313 311 310 309 309 310 311 311 312 312 310 309 310 310 309 309 310 309 309 310 310 310 310 311 312 312 311 311 312 312 312 312 311 310 310 311 310 311 314 316 317 316 314 313 314 315 318 316 315 316 315 313 313 313 312 311 310 311 312 312 315 317 318 318 318 319 321 326 331
313 309 310 311 311 311 313 314 315 314 314 313 313 313 314 314 314 313 313 312 311 311 310 310 311 311 311 311 311 309 309 310 309 309 310 309 309 310 311 311 312 312 312 312 312 311 312 312 312 311 311 310 310 311 310 310 314 317 314 312 314 314 313 313 315 314 313 313 312 311 312 311 311 310 310 310 311 312 314 315 316 317 318 318 320 328 332
314 310 309 311 311 311 312 314 314 315 314 312 315 316 314 314 313 312 312 311 311 311 311 311 312 311 311 311 310 309 309 310 310 310 310 310 309 311 312 312 312 313 313 313 313 314 313 313 313 312 312 311 310 310 310 310 313 314 311 311 313 313 312 311 312 311 311 311 311 311 311 311 310 310 310 310 311 312 313 314 313 315 318 317 318 325 331
315 312 309 310 312 311 312 314 314 315 314 312 315 317 315 314 313 311 310 311 311 311 311 312 312 312 314 313 311 310 310 310 309 308 310 311 309 311 313 313 312 314 315 315 315 315 314 312 313 312 312 311 311 310 310 311 312 311 311 312 312 312 312 311 310 311 311 311 311 310 311 311 311 310 310 310 310 311 311 312 312 313 315 314 316 325 329
315 314 310 309 312 311 311 314 314 314 314 313 316 316 315 315 314 312 313 313 313 313 312 313 313 312 314 314 312 311 310 310 310 309 309 311 310 311 312 312 312 313 315 314 313 312 313 312 312 312 312 311 311 311 311 311 312 312 313 313 312 314 315 312 311 312 311 311 311 311 311 311 312 313 314 312 312 313 313 313 313 313 314 314 318 327 328
315 315 311 309 311 312 312 313 314 314 314 315 316 314 313 313 313 314 317 315 314 314 313 312 313 312 312 313 313 313 312 310 310 309 309 311 311 310 311 312 312 311 313 312 311 311 313 312 311 311 311 310 311 312 311 310 312 314 313 313 313 314 314 313 311 311 312 312 311 311 312 312 315 320 320 318 318 319 319 321 320 318 319 317 317 324 327
315 316 313 309 311 312 312 313 314 314 314 315 316 314 313 313 311 312 316 315 312 312 312 312 313 312 312 313 313 313 312 311 311 311 310 311 311 310 311 313 312 311 312 311 309 310 310 309 308 308 310 310 310 312 311 310 312 314 313 313 314 313 313 312 311 311 312 312 312 313 312 311 315 320 319 317 316 317 319 322 321 322 324 322 320 323 325
314 316 315 311 310 312 313 313 313 314 314 314 316 314 313 314 314 315 318 315 311 311 312 313 313 312 312 313 313 313 313 313 313 314 312 313 311 309 311 314 312 311 311 309 308 308 308 308 309 309 310 310 311 311 312 311 312 313 313 313 314 314 314 313 312 312 313 312 313 313 310 309 313 315 314 314 314 313 315 317 318 321 324 324 323 324 322
314 315 316 313 310 311 313 313 312 313 314 314 315 315 313 313 314 319 322 316 312 312 312 312 312 312 312 312 312 313 314 313 314 315 314 313 313 310 312 315 314 312 310 308 308 309 309 309 310 310 310 311 311 311 312 312 312 311 312 313 314 314 314 313 313 313 313 313 314 310 308 311 313 311 313 316 315 314 316 317 319 321 322 322 323 321 320
313 314 316 315 312 310 312 313 313 313 313 314 313 314 314 312 312 320 324 318 313 313 313 312 311 311 312 312 312 313 312 312 313 314 315 314 314 313 313 314 314 313 310 309 309 311 311 311 311 311 310 310 311 311 311 312 312 312 312 313 314 314 314 314 314 313 313 312 311 310 310 312 312 312 315 317 317 317 317 318 320 321 321 322 321 319 318
312 314 314 316 315 311 311 313 314 312 312 313 313 314 315 314 315 320 323 319 314 312 311 312 312 312 313 314 313 312 312 313 313 314 314 314 314 313 313 312 313 312 310 310 311 312 312 312 312 312 312 311 312 312 312 311 312 312 313 313 313 314 314 314 313 313 313 313 312 313 312 312 314 316 317 317 317 318 317 317 319 319 318 320 320 318 317
311 314 314 315 316 314 311 311 313 313 312 313 313 313 313 314 316 317 317 319 318 312 310 312 313 313 314 314 314 313 313 314 314 314 313 313 313 313 312 312 312 311 310 311 313 313 312 312 313 313 312 312 312 312 312 312 311 311 312 313 313 313 314 314 313 314 314 313 313 312 310 311 315 317 317 316 316 317 317 317 318 317 315 316 318 317 317
310 313 314 314 316 316 313 311 312 313 314 313 313 313 312 313 314 313 314 319 320 314 311 313 313 313 314 313 312 313 313 314 314 314 313 314 314 313 312 313 313 312 311 312 313 313 312 312 312 312 311 311 311 311 311 312 312 311 311 312 313 313 314 313 313 314 314 313 312 312 311 312 315 317 317 315 314 316 316 315 317 317 315 314 316 316 315
310 312 314 313 314 316 315 313 311 311 313 313 314 314 313 313 314 313 314 319 320 316 314 313 312 312 313 312 312 312 313 313 313 313 314 314 314 313 313 312 313 312 312 313 313 313 313 312 311 312 310 308 309 310 310 312 314 313 312 313 313 314 315 314 313 314 315 313 312 312 313 313 314 316 315 313 313 316 316 314 317 317 314 314 315 315 314
310 311 312 313 313 314 315 315 313 311 311 312 314 315 314 314 313 312 315 320 320 317 314 311 311 312 313 313 313 312 312 313 313 313 314 313 313 314 313 313 313 312 313 315 315 314 314 312 312 312 311 308 308 309 310 312 313 312 311 312 312 313 314 314 313 314 315 314 314 313 314 314 315 314 314 313 314 315 314 315 318 316 313 314 315 314 313
310 310 311 312 313 313 314 315 315 313 311 311 313 314 314 315 314 313 315 318 318 315 313 311 313 314 312 312 312 311 311 313 314 314 313 313 312 312 312 312 313 313 313 315 315 314 314 314 311 311 311 311 309 309 309 310 311 311 311 311 311 312 314 313 313 314 314 315 315 314 313 314 314 314 314 315 315 315 315 315 315 314 313 313 313 313 312
310 310 311 312 312 312 313 314 315 315 313 311 312 314 314 315 315 314 315 316 317 316 314 312 313 314 313 313 313 313 312 313 313 313 314 313 312 312 313 313 313 314 314 315 315 313 313 314 312 310 311 313 311 309 309 309 310 311 313 313 313 313 313 313 313 313 313 314 314 313 312 313 314 314 314 315 315 315 315 314 312 313 313 312 312 312 311
310 310 310 311 311 311 312 313 314 314 314 313 311 313 315 315 314 314 315 315 315 317 316 313 312 313 313 313 314 314 314 313 313 313 313 312 311 312 314 315 314 315 315 314 314 313 313 313 312 311 311 312 310 310 311 312 311 310 311 312 313 313 312 313 313 313 313 314 314 313 312 314 314 314 314 315 315 314 313 312 312 312 312 311 311 311 310
310 310 310 311 311 310 310 311 313 313 314 313 312 312 313 314 314 315 315 314 314 316 315 313 312 313 313 314 314 313 313 314 313 313 313 312 311 312 313 314 316 316 313 313 313 313 312 312 313 313 312 312 311 311 311 312 313 311 310 311 312 312 312 312 313 313 312 313 313 312 312 312 313 313 314 314 314 312 312 311 311 312 311 311 311 310 310
310 311 311 311 311 310 309 309 310 311 311 312 312 311 311 312 312 313 314 313 314 315 314 313 313 314 314 314 314 314 314 314 313 313 313 314 314 312 312 313 315 314 312 313 314 314 313 313 313 313 313 313 313 313 312 312 312 312 311 311 311 311 310 310 312 313 311 311 312 311 310 311 312 312 312 313 312 311 311 311 311 311 311 310 310 310 309
309 310 311 310 311 310 309 309 309 309 309 309 309 309 309 310 310 311 312 313 315 316 315 314 314 314 314 314 314 314 314 314 315 314 314 314 315 314 313 313 312 313 315 316 314 313 314 314 312 312 313 313 313 313 314 313 312 312 312 312 311 310 309 309 312 312 311 312 313 311 310 311 312 312 312 312 311 311 311 311 311 311 310 310 310 309 309
309 310 311 310 310 309 309 309 308 309 308 308 308 308 308 309 310 311 313 314 315 316 318 317 315 313 314 314 314 314 314 314 314 314 314 314 314 315 315 313 312 314 316 315 312 313 316 315 313 313 314 313 312 312 313 313 313 312 312 313 313 311 310 311 312 312 312 313 313 311 310 310 310 310 311 311 311 312 311 311 311 310 310 310 310 310 309
309 310 311 310 309 309 309 309 308 308 308 308 308 308 308 308 309 311 312 314 314 314 316 319 316 313 313 315 314 314 314 313 313 314 314 314 314 314 315 314 313 313 314 313 313 316 318 317 315 315 314 313 312 312 313 312 312 311 312 312 312 311 310 311 313 312 312 313 312 311 311 310 310 310 310 310 311 312 311 311 310 309 309 310 310 310 310
309 310 310 310 309 308 308 308 308 307 308 308 308 307 307 307 308 310 311 313 315 316 317 318 317 314 314 315 314 314 314 314 314 314 314 314 314 314 314 314 314 314 313 313 314 315 316 316 315 315 314 312 311 311 312 312 311 311 312 311 310 311 312 311 312 313 313 313 313 313 312 312 311 311 311 311 311 311 311 311 310 309 309 310 310 310 310
309 310 311 310 309 308 308 308 308 307 307 307 307 307 308 307 307 309 309 310 313 316 316 316 316 315 315 314 313 314 315 314 314 314 314 314 314 314 314 314 314 314 314 315 314 315 315 315 315 315 314 313 313 313 313 313 312 313 314 312 310 312 313 312 311 313 314 313 314 314 312 312 312 312 311 311 311 310 310 311 310 309 310 310 310 309 309
309 310 310 310 310 309 308 308 307 307 307 308 307 308 310 310 309 308 309 309 311 313 314 315 316 316 315 315 315 315 315 315 314 315 315 314 314 315 315 315 314 313 314 315 316 317 317 317 317 317 315 315 317 317 315 315 316 316 316 314 311 312 313 313 313 314 313 313 313 313 311 311 313 312 311 311 311 311 310 310 310 310 310 310 310 309 309
309 310 311 310 310 309 308 308 307 306 306 307 308 310 313 314 312 309 309 310 311 313 314 315 316 316 315 315 316 316 316 315 315 315 315 315 315 315 315 315 315 315 315 315 316 318 318 317 317 317 314 314 317 317 315 316 318 317 316 315 313 312 312 313 313 313 313 313 313 311 311 311 311 310 309 310 311 310 310 309 310 310 310 310 310 310 310
310 310 310 310 310 309 308 308 307 307 307 307 309 313 317 318 314 310 309 310 312 313 314 315 316 317 316 316 317 316 316 316 317 317 316 316 316 315 315 316 316 316 314 314 315 317 318 318 318 317 315 314 315 315 315 316 316 316 315 315 314 312 312 312 312 312 312 312 312 310 309 310 309 308 309 309 310 310 310 310 310 311 310 310 310 310 310
310 310 310 310 310 309 309 308 307 307 307 308 309 311 314 315 312 309 309 311 312 313 315 317 317 317 317 317 316 315 315 316 317 317 318 318 317 316 316 317 316 316 314 314 315 316 316 316 316 316 316 315 315 315 316 316 315 316 316 315 314 314 314 313 313 312 311 311 310 309 310 310 309 309 310 310 310 310 310 310 310 310 310 311 310 310 309
310 310 310 310 311 311 310 309 308 307 308 308 310 310 310 310 311 309 309 311 312 313 315 317 319 318 318 317 316 315 316 316 316 317 318 319 318 317 318 317 315 315 315 315 315 315 315 314 314 315 316 316 315 315 316 315 315 315 315 314 313 313 313 313 313 312 312 311 310 310 312 312 311 310 310 310 310 310 310 310 310 310 309 309 309 309 308
310 310 310 311 311 310 310 309 309 309 309 310 312 312 311 310 310 309 309 311 314 315 316 317 319 318 317 317 317 316 316 316 317 318 319 319 317 317 318 316 315 316 316 315 315 315 315 315 314 314 314 315 315 315 315 315 314 313 313 313 313 313 312 312 312 312 311 310 309 309 311 312 310 310 310 310 310 310 310 310 310 309 308 308 308 308 308
309 310 311 311 310 309 309 309 309 310 310 311 313 314 313 311 310 310 311 312 315 318 318 318 318 318 318 318 319 317 315 316 318 318 318 318 316 316 317 317 316 317 316 315 315 316 316 315 314 314 315 315 315 315 315 315 314 314 314 314 313 312 312 312 312 312 311 310 309 309 309 309 308 309 310 309 309 310 310 310 310 309 308 308 308 307 308
310 310 310 309 309 310 310 310 311 312 313 314 314 315 314 312 311 311 311 312 314 317 319 319 319 319 319 319 319 318 316 317 318 317 316 317 317 316 316 317 317 317 315 315 315 317 316 314 314 315 315 314 314 314 314 314 315 315 314 314 313 312 312 312 313 312 310 309 309 309 308 308 308 310 310 310 310 310 309 309 309 308 308 308 308 308 308
310 309 309 309 310 312 313 313 312 313 315 315 314 314 313 312 311 311 312 312 313 315 316 318 319 318 318 319 319 317 317 319 319 318 317 317 317 316 315 316 318 317 316 316 317 316 315 313 314 315 315 314 315 315 315 315 315 315 314 314 314 313 313 312 312 311 310 309 309 309 309 308 309 310 310 310 310 309 308 308 309 309 308 308 308 308 307
308 309 309 310 313 317 318 316 314 314 314 314 315 315 314 313 313 314 313 314 315 316 316 317 318 317 317 318 319 318 318 319 319 319 318 317 317 316 316 316 316 316 316 316 315 314 314 314 314 316 316 315 315 315 315 315 315 315 314 314 314 314 313 312 311 310 310 310 310 310 310 310 310 311 310 310 310 309 309 309 309 309 309 308 308 308 307
308 309 310 311 315 318 319 316 315 315 315 314 315 316 316 316 317 317 316 315 316 317 317 317 318 318 317 319 319 318 317 318 319 319 318 317 316 316 317 316 315 314 315 315 313 313 314 315 315 314 315 315 315 316 316 315 314 314 313 312 312 313 313 311 310 311 311 312 312 311 311 310 309 309 310 310 309 309 309 310 310 309 309 308 308 307 307
308 310 312 314 315 316 315 314 315 315 315 315 316 316 317 317 318 318 318 317 317 318 318 318 317 316 316 318 320 318 316 317 318 319 318 317 316 315 317 316 314 313 314 314 312 312 314 315 314 313 314 315 316 315 314 312 312 312 312 312 312 312 312 311 311 312 313 313 312 312 310 309 308 308 309 309 309 308 308 308 309 309 308 308 308 307 306
309 311 313 314 315 315 315 315 315 315 315 316 318 318 318 318 317 316 317 319 320 318 317 317 318 319 317 317 318 318 317 316 316 316 317 318 316 316 317 316 314 313 314 314 312 313 314 315 314 313 314 315 315 313 312 312 312 312 312 312 312 312 312 311 312 312 312 312 312 311 310 310 310 309 309 310 309 308 308 308 309 309 309 308 307 306 306
310 311 312 312 313 314 315 315 315 315 317 318 319 318 318 318 318 318 318 320 321 319 318 318 319 320 318 316 316 317 317 316 315 316 317 318 316 315 317 316 314 314 315 314 312 313 314 314 313 313 314 315 314 312 312 313 313 312 312 312 311 312 311 311 311 311 311 311 311 310 310 310 310 310 310 309 309 309 309 309 309 309 308 307 306 305 305
310 310 311 312 313 313 315 316 316 317 318 319 320 320 318 316 317 319 320 319 320 320 320 319 318 318 318 317 317 317 316 315 315 316 317 316 315 315 316 316 315 314 314 312 312 314 314 312 312 313 313 313 312 311 312 313 312 311 312 312 311 311 311 311 312 311 311 311 311 310 310 310 310 309 309 308 309 309 309 309 309 308 308 306 305 305 305
310 310 311 314 315 315 316 318 317 317 319 319 319 321 320 318 319 321 322 322 321 321 320 320 320 320 320 318 317 317 317 316 315 316 316 315 315 315 316 315 314 313 313 313 314 314 312 311 312 313 312 311 311 311 312 313 312 312 312 312 311 311 311 311 311 311 310 310 310 310 309 309 309 308 308 308 309 309 308 308 308 308 307 305 305 305 304
313 314 315 317 316 314 316 317 317 317 319 318 317 319 320 322 324 325 322 321 322 321 321 320 319 319 319 318 317 317 317 316 316 316 316 315 316 317 315 315 314 314 314 314 314 312 312 312 312 311 311 310 310 311 312 312 312 312 311 311 311 310 310 309 309 310 311 310 310 310 309 309 309 308 308 308 308 308 308 308 307 307 306 305 305 304 304
314 314 315 318 317 313 313 315 317 318 319 318 317 318 320 322 324 322 319 319 321 321 321 320 319 319 320 319 317 316 316 316 316 316 315 315 317 317 314 313 314 315 315 314 314 313 313 312 310 310 310 310 310 311 311 312 312 311 311 311 311 310 308 307 307 308 310 310 310 309 309 309 309 308 308 308 308 308 308 307 306 306 305 305 304 304 304
314 311 313 320 321 316 313 314 316 316 316 316 316 317 319 320 320 319 319 320 320 320 318 318 317 318 318 318 317 317 316 316 316 316 314 315 316 315 312 313 315 315 314 315 314 312 310 309 309 309 310 309 309 310 311 311 312 311 311 310 310 309 307 306 306 306 307 308 309 309 309 309 308 308 308 308 308 307 307 307 306 305 305 304 304 303 303
315 311 313 322 324 318 315 316 316 315 316 316 316 317 318 319 320 321 321 320 319 319 319 319 318 319 318 317 317 317 317 316 317 316 314 314 314 313 312 314 314 313 313 313 311 310 309 309 309 309 308 308 309 310 310 311 312 311 311 310 310 308 307 307 307 306 306 306 307 308 308 308 308 308 308 308 308 307 306 306 305 305 304 304 303 303 302
313 312 314 318 318 315 314 315 316 317 318 316 316 318 320 320 319 320 321 320 318 318 318 318 319 320 319 316 315 316 317 316 316 315 313 314 315 314 313 313 314 313 311 310 309 308 309 309 308 308 308 309 309 309 309 310 311 311 311 311 311 309 308 308 307 306 306 305 305 306 307 308 308 308 308 308 308 307 306 305 305 304 304 303 302 302 302
311 313 315 315 315 314 315 315 316 318 318 317 318 322 323 320 319 319 320 319 318 318 317 316 316 317 315 313 313 315 314 314 314 314 314 315 315 313 312 313 313 312 311 310 309 309 309 308 308 308 308 308 308 308 308 309 309 309 310 311 311 310 309 308 308 307 306 304 304 305 307 308 308 307 307 308 307 306 305 305 304 304 303 302 302 302 301
312 313 314 314 314 314 314 315 316 316 317 319 322 323 321 319 319 319 319 319 320 321 319 317 315 314 313 313 314 314 312 312 314 315 315 315 314 313 313 314 313 311 310 310 309 308 307 307 307 307 307 307 307 307 307 308 308 308 309 309 309 309 309 308 307 306 305 303 303 305 307 307 307 306 306 307 306 306 305 305 304 303 302 302 301 301 301
313 315 315 314 313 313 314 315 317 317 317 320 323 322 320 319 321 320 318 319 322 322 319 316 315 315 314 315 315 314 313 314 315 314 314 313 313 313 313 313 311 309 309 308 307 306 306 306 306 306 306 306 306 306 306 307 307 307 307 307 308 309 308 307 306 306 305 304 304 306 307 306 305 305 306 307 306 306 306 306 304 303 302 302 301 301 301
Wind_Speed
26 25 27 29 31 33 32 29 25 25 21 13 10 7 3 2 1 8 21 13 4 8 6 2 4 4 2 2 2 3 4 5 7 7 7 5 4 5 6 4 5 5 4 3 3 3 4 5 4 4 4 7 5 7 10 7 3 3 1 1 2 1 1 3 4 3 1 4 4 1 3 1 2 6 7 5 3 2 2 1 1 2 2 1 2 4 4
25 25 27 28 30 32 31 28 24 22 19 14 9 3 1 2 2 6 20 16 6 4 4 3 4 4 3 4 4 4 4 6 8 8 8 6 3 4 5 4 4 4 3 4 3 2 2 4 4 2 3 3 4 6 10 9 6 4 3 2 2 1 1 1 3 4 3 4 5 3 1 3 3 4 7 8 7 4 1 1 0 2 2 1 2 4 5
25 24 26 28 29 30 30 27 23 20 16 13 9 2 2 2 1 2 15 20 12 4 1 3 5 3 4 6 6 4 3 4 6 6 7 6 4 3 3 3 3 3 3 5 6 5 4 3 1 1 2 2 2 6 9 9 7 7 6 3 2 1 2 1 1 2 3 2 2 2 1 2 2 3 6 8 9 8 2 1 1 2 2 1 1 4 7
25 24 25 27 28 30 29 26 22 19 15 11 9 5 1 1 2 1 6 10 7 3 2 2 3 3 3 4 5 5 4 2 3 4 5 6 6 5 3 3 2 4 5 6 8 8 7 5 3 2 2 2 1 4 6 7 9 9 9 7 2 2 3 3 3 3 2 3 3 2 1 2 2 4 7 7 8 8 3 0 1 2 5 3 4 5 10
24 24 24 26 28 29 29 26 20 18 16 10 7 6 2 1 2 2 2 3 3 4 4 4 2 1 1 2 3 5 5 3 4 4 4 4 5 4 4 4 4 4 5 5 5 6 7 7 5 3 2 1 1 3 4 7 11 9 7 6 2 3 3 4 6 7 6 5 5 2 1 3 3 4 5 5 7 8 5 4 3 0 2 4 3 5 9
22 23 23 25 27 28 29 26 20 16 16 10 4 3 3 2 2 1 1 1 2 3 4 4 5 5 2 2 2 4 7 7 5 3 2 3 4 3 4 7 7 4 2 2 3 3 4 5 3 2 2 1 1 2 3 6 9 8 5 5 2 3 3 2 4 7 6 5 5 3 2 3 1 2 3 4 6 6 5 5 3 3 2 6 6 6 7
21 22 21 23 25 27 28 27 21 15 12 10 8 4 2 2 2 0 1 1 1 1 3 3 5 7 4 3 3 4 7 8 4 2 2 4 5 4 4 6 7 5 2 2 3 2 2 3 1 1 2 2 1 2 2 4 7 6 5 4 2 1 3 3 4 6 6 4 3 3 3 3 2 2 3 3 3 3 2 2 2 2 3 6 7 8 7
19 20 20 21 23 26 27 27 23 15 11 12 11 6 2 1 2 0 1 2 2 2 2 2 4 5 3 2 3 2 5 7 4 2 3 4 4 4 5 6 5 5 5 5 6 4 2 3 2 1 1 1 1 1 1 1 4 5 3 2 2 1 2 3 3 4 4 3 3 3 4 4 2 3 4 2 1 3 2 2 1 0 2 5 9 9 7
17 18 19 19 20 23 25 26 25 19 12 11 9 5 3 2 1 0 2 2 3 3 2 2 2 3 2 2 2 2 3 4 3 3 4 3 2 2 4 5 4 4 7 8 7 4 1 3 3 1 1 1 1 1 0 1 2 4 3 2 2 1 2 3 2 3 3 1 3 4 3 1 3 5 6 6 4 4 4 4 3 1 2 6 8 7 5
16 16 17 17 18 20 22 24 25 22 16 12 7 2 3 2 1 1 1 1 2 2 1 1 1 2 2 2 2 2 2 1 2 3 4 3 3 2 2 3 3 4 7 8 6 3 1 2 4 2 1 4 3 2 3 2 2 3 2 1 2 1 2 3 2 2 3 1 3 4 1 3 4 4 5 5 4 4 4 5 5 3 1 2 3 4 6
15 14 15 15 15 17 19 21 23 23 22 17 8 3 2 1 1 1 1 2 2 1 1 1 1 1 1 1 2 2 4 3 1 2 3 3 3 2 2 2 2 3 5 4 3 3 5 5 6 6 6 8 7 5 6 7 6 3 1 1 1 1 2 2 1 1 3 1 2 2 3 3 3 4 3 3 3 2 1 2 3 2 1 2 5 6 6
14 12 13 14 13 14 15 17 19 20 21 18 12 7 4 2 1 0 0 2 2 0 1 2 1 1 0 1 3 3 4 5 3 2 3 4 3 2 2 3 2 2 4 3 5 7 8 7 8 9 8 8 8 9 10 10 8 5 3 2 1 3 3 2 0 1 2 1 1 3 3 1 3 2 2 2 1 1 2 1 2 2 1 4 7 7 5
13 11 11 12 12 11 12 13 14 16 16 16 14 12 8 4 1 1 1 2 2 1 2 2 2 2 0 2 4 3 3 3 2 2 3 4 4 3 3 2 2 2 2 6 6 5 5 5 5 4 5 5 4 7 9 9 8 7 7 5 1 2 2 2 1 1 1 2 3 3 0 2 1 1 1 1 2 1 2 2 4 4 1 2 5 6 5
12 10 9 10 10 10 9 10 11 12 12 13 14 14 11 7 3 0 0 2 1 0 1 1 0 1 0 2 3 2 2 2 2 2 2 2 3 4 2 1 2 1 2 4 3 2 2 2 2 2 1 1 1 1 3 5 6 7 7 6 3 0 1 1 1 0 1 1 1 0 1 1 3 2 2 1 2 2 0 1 3 4 2 2 3 4 4
12 10 8 8 8 8 7 7 8 8 9 11 12 12 13 11 7 2 1 1 2 1 1 2 2 2 2 1 1 2 2 2 1 1 1 1 0 1 1 2 2 1 2 2 1 1 1 2 2 3 2 1 1 0 1 1 2 5 5 4 3 2 1 1 1 1 1 1 1 1 2 3 4 5 4 2 1 2 1 1 1 3 2 2 3 3 3
11 9 8 7 7 7 6 6 5 6 7 8 9 11 13 13 10 5 2 1 1 1 1 2 3 2 2 1 1 1 1 2 2 2 2 1 1 1 1 1 2 1 2 2 1 1 1 1 2 2 2 1 1 0 0 0 0 2 3 3 3 3 2 1 1 1 2 2 1 2 3 1 3 6 6 4 3 3 2 3 2 3 3 2 3 3 3
11 9 8 7 6 6 6 5 4 4 5 6 7 9 11 12 10 7 3 1 1 1 0 3 4 2 2 2 1 1 1 1 1 1 2 2 1 1 1 1 2 2 1 1 1 1 1 2 1 1 2 2 1 1 1 1 2 2 1 1 2 3 2 0 1 2 2 2 2 2 2 0 3 6 7 5 4 4 3 3 2 5 4 2 3 2 2
11 9 7 7 6 5 5 5 4 3 4 4 5 6 8 10 10 8 3 1 0 1 2 4 4 2 1 1 1 1 1 1 1 1 1 1 1 1 1 1 1 1 1 1 1 1 1 2 1 1 2 2 1 1 1 2 2 2 2 2 2 1 1 1 1 1 2 3 2 2 2 1 4 7 7 6 5 5 3 1 3 6 5 3 3 2 1
12 9 7 6 6 5 4 4 4 3 3 3 3 3 4 6 8 8 4 1 0 1 2 4 3 2 2 2 2 2 1 0 0 1 1 1 1 1 2 1 1 1 1 1 2 1 1 2 1 1 1 2 2 1 2 2 2 2 3 2 1 1 1 1 1 1 1 2 2 3 3 1 5 7 6 5 4 3 1 2 4 6 6 5 4 3 2
12 9 7 6 6 6 5 4 4 3 2 2 1 1 1 3 5 7 5 2 0 2 2 4 5 4 4 3 2 3 2 1 1 1 2 1 1 2 2 1 1 1 1 1 2 1 2 2 2 1 2 2 2 2 1 1 2 3 3 2 1 3 2 2 3 2 1 1 2 2 2 2 8 9 6 4 4 1 3 4 4 5 5 5 5 4 3
13 10 7 6 6 6 5 5 4 4 3 2 1 1 1 1 2 3 3 2 1 1 1 4 6 6 6 6 5 4 3 3 2 1 1 1 1 2 1 1 2 2 1 1 1 1 1 1 2 1 1 1 1 2 2 1 2 3 2 2 1 4 3 2 3 4 3 3 4 2 1 2 7 7 4 3 3 3 4 4 3 5 6 5 4 4 5
13 10 8 6 5 6 6 5 5 5 4 3 2 2 3 3 3 2 3 2 2 4 4 5 7 9 10 12 12 10 8 5 2 1 1 1 1 1 0 0 2 1 1 1 1 0 1 1 2 2 2 2 2 2 1 2 2 2 2 2 3 3 2 0 1 3 4 3 2 1 2 1 5 4 1 4 5 4 4 3 3 4 5 5 4 5 5
12 11 8 7 5 5 5 5 5 6 5 3 2 2 3 4 4 4 4 3 3 5 8 8 8 9 9 9 10 13 14 13 12 11 8 4 1 1 2 2 1 1 1 2 1 1 2 2 1 1 2 2 3 3 2 3 2 2 4 4 2 1 1 0 1 2 3 5 5 4 3 4 6 6 3 3 3 2 3 4 4 4 4 5 5 5 5
12 11 9 7 5 5 5 4 5 5 5 4 3 2 3 4 3 2 2 1 1 2 3 3 3 2 0 1 2 5 8 10 11 14 14 10 5 2 2 2 2 1 1 2 1 1 1 1 1 1 3 3 3 4 4 4 3 3 3 3 2 3 5 4 3 2 3 4 4 6 7 7 7 7 6 5 5 4 4 5 5 4 4 5 6 6 6
12 11 9 7 5 5 5 4 4 5 6 5 3 3 4 3 1 1 1 1 1 1 1 2 0 2 1 4 5 5 5 5 6 9 13 15 13 8 2 3 4 3 1 2 3 2 2 1 2 2 3 3 4 4 3 3 3 4 5 4 3 4 7 6 5 5 5 4 1 2 4 5 6 6 6 6 7 6 6 7 6 5 5 6 7 6 6
12 11 9 7 5 5 5 4 4 4 5 5 4 3 4 3 3 4 3 2 2 2 1 3 1 1 5 8 6 3 3 5 6 8 11 14 17 15 6 2 3 2 2 3 2 2 2 1 2 3 3 3 4 3 2 1 1 3 4 3 2 5 6 5 5 6 6 7 7 6 5 6 8 10 9 8 7 6 7 7 6 6 7 7 7 7 7
12 11 9 7 5 5 5 4 3 4 5 6 5 3 4 4 4 5 5 2 1 1 1 1 1 4 8 8 5 4 3 3 5 8 11 13 15 15 11 6 3 2 3 2 0 0 1 2 3 3 2 2 2 2 1 1 1 2 4 3 4 5 6 4 3 5 6 6 6 7 5 6 6 8 10 10 9 7 7 7 6 7 8 7 8 8 8
12 11 8 6 5 5 5 3 3 4 5 5 4 4 4 4 4 6 8 5 1 1 1 2 4 6 6 4 5 7 5 4 5 7 10 12 12 13 12 9 5 3 4 3 2 2 3 3 2 2 1 1 2 2 1 1 2 4 6 5 7 7 7 7 6 7 7 7 5 6 5 6 4 4 6 7 7 7 8 8 7 8 8 7 7 7 7
12 10 8 6 5 5 4 3 3 4 4 4 4 3 1 1 1 5 11 9 4 2 1 3 4 3 3 4 7 7 5 4 5 6 8 9 11 12 11 9 7 5 4 3 3 2 2 2 1 1 2 2 1 1 1 2 5 8 7 7 9 9 8 9 10 9 8 9 7 5 6 7 4 2 4 5 5 7 8 8 7 7 7 7 7 7 8
11 9 7 6 5 5 4 3 3 3 3 3 2 1 1 1 3 2 10 12 6 3 1 2 2 1 3 4 5 4 5 4 2 1 1 3 6 8 8 7 5 3 1 0 1 1 1 1 1 0 2 3 2 0 2 4 5 6 6 7 9 9 8 9 9 9 9 8 3 5 8 8 2 1 2 4 6 7 7 7 7 7 7 7 7 7 9
10 8 6 5 5 4 3 2 3 3 2 1 1 1 1 1 2 1 9 13 8 3 0 2 3 3 2 2 2 4 5 3 3 4 4 3 2 2 5 5 4 3 2 0 0 1 1 1 2 1 2 5 4 2 3 4 6 6 5 7 8 9 9 9 8 9 11 7 2 4 5 5 2 2 4 5 7 8 7 6 7 7 7 7 7 8 9
9 7 5 5 4 3 2 2 2 2 2 1 2 1 1 1 1 0 9 14 9 2 1 2 3 2 2 1 2 3 3 1 2 1 1 2 3 3 4 3 3 4 4 2 2 2 2 2 3 3 3 5 5 3 4 6 9 9 4 5 5 6 8 9 8 9 10 7 4 4 7 6 6 7 5 3 6 8 8 7 6 5 5 6 7 8 9
7 6 5 4 3 1 1 2 1 1 1 1 2 2 3 4 2 4 10 12 6 1 0 2 2 2 2 3 2 2 2 1 0 1 1 1 1 1 2 2 1 3 5 3 2 1 1 2 3 3 2 4 3 3 3 7 11 12 7 4 5 7 8 8 8 7 7 6 8 9 9 5 5 6 5 3 4 6 7 6 4 4 4 5 6 8 10
6 4 3 1 1 1 1 2 2 2 2 1 2 2 2 6 6 8 13 9 2 0 2 1 2 2 3 3 1 2 3 2 1 1 1 2 1 1 1 1 1 2 3 3 2 1 0 1 2 2 1 2 2 3 5 7 12 13 11 8 8 7 6 6 7 7 7 6 8 10 7 1 4 4 4 4 5 5 5 5 4 4 5 6 6 8 10
3 1 0 2 3 4 4 5 5 4 2 0 1 3 1 5 7 10 12 7 1 1 2 1 1 1 3 3 1 1 2 2 1 1 1 1 1 0 0 1 1 1 1 1 1 1 1 2 2 2 2 1 2 5 6 9 11 10 9 8 7 5 4 5 6 7 6 6 7 7 6 4 4 5 5 5 5 5 4 4 5 5 5 6 7 9 10
0 2 4 6 6 5 5 4 3 2 2 1 2 4 4 5 8 11 9 3 2 2 1 1 1 2 1 2 2 1 2 1 0 0 0 0 1 1 0 1 1 1 1 2 2 2 2 2 2 2 2 2 4 6 7 8 10 10 9 8 6 5 6 7 6 3 3 5 7 6 6 7 7 6 5 5 4 4 3 4 5 5 6 7 8 8 9
3 5 6 6 5 3 2 2 2 2 4 5 7 9 8 8 8 8 6 2 3 3 2 2 3 3 2 3 2 1 2 2 1 1 1 1 0 1 1 1 1 0 1 2 2 1 2 2 2 3 4 4 6 8 8 8 10 10 10 9 7 6 7 7 4 3 4 5 6 6 6 7 7 5 4 4 4 3 4 5 5 5 6 7 7 7 9
6 6 5 3 2 2 1 1 2 4 7 7 7 5 4 4 4 3 3 2 3 3 2 2 4 3 2 3 2 0 1 2 1 1 1 1 0 0 1 1 1 1 2 2 1 1 2 2 2 3 5 6 8 9 9 9 9 9 9 9 8 7 6 5 6 7 7 6 6 7 6 6 6 5 4 5 5 4 4 5 5 5 6 7 8 8 10
7 5 3 2 1 1 2 3 4 6 6 3 1 0 1 2 2 1 2 2 2 2 2 3 4 4 4 5 4 1 1 1 1 1 1 1 1 1 1 0 1 1 2 2 0 1 2 2 2 3 5 5 5 6 6 5 6 8 8 8 8 7 6 6 8 11 9 6 6 8 8 6 6 5 4 4 4 4 4 4 5 5 6 7 8 9 10
5 3 2 1 2 3 4 5 6 6 4 2 1 1 1 1 1 1 1 1 2 2 2 3 3 3 4 5 4 2 2 2 1 2 1 1 0 1 1 1 0 1 3 2 1 1 2 2 1 2 4 3 2 4 4 4 6 8 7 5 6 6 7 8 9 11 9 5 4 6 7 6 5 5 4 4 4 4 4 4 5 6 6 6 7 9 10
3 3 2 2 2 3 4 4 3 3 1 1 2 1 1 1 1 1 1 2 3 3 3 2 2 2 3 4 4 3 2 2 0 1 1 1 0 0 1 1 0 2 3 2 1 1 2 2 2 3 3 2 3 5 5 5 7 8 6 4 4 6 8 9 10 10 8 5 4 5 6 6 6 5 4 4 4 4 5 5 6 6 5 5 7 9 11
5 4 3 2 1 2 2 2 1 1 1 1 1 1 0 1 1 2 3 3 2 1 2 3 2 1 1 3 3 2 1 1 1 1 1 1 0 1 1 1 1 2 3 1 1 1 2 2 3 4 3 2 4 6 7 6 7 8 7 5 4 5 8 9 9 9 8 8 7 6 6 7 6 5 5 5 4 4 5 6 6 5 4 5 7 9 11
6 3 1 1 2 1 1 1 1 1 1 1 1 0 1 2 2 2 2 2 1 1 2 2 1 0 1 2 1 0 1 1 1 1 1 0 0 0 1 1 1 1 1 1 2 3 3 3 4 3 1 3 5 7 7 7 7 7 7 5 4 6 8 10 9 8 8 9 8 8 7 7 6 5 5 5 5 4 5 4 4 3 3 5 7 9 11
5 2 0 1 2 1 1 1 1 1 1 1 1 2 2 1 2 2 2 1 1 1 1 1 1 1 1 1 1 1 1 1 1 0 1 1 1 1 2 2 2 1 1 1 2 3 3 3 3 1 3 5 6 7 8 8 8 7 7 5 5 6 8 9 9 9 8 7 7 7 7 6 5 5 5 5 4 4 4 3 2 2 3 6 8 9 11
3 1 1 1 0 0 0 0 0 1 2 2 2 3 2 1 1 2 1 0 1 1 0 1 1 2 1 1 1 1 1 1 1 1 1 1 1 2 2 1 1 1 1 2 2 3 3 2 1 3 6 8 9 8 9 8 7 7 8 7 5 4 4 5 5 5 6 8 8 8 7 6 6 6 5 5 5 3 3 2 1 1 3 5 7 9 10
1 1 2 1 1 1 1 1 1 2 2 2 2 3 2 1 1 1 0 1 1 1 0 1 2 3 2 1 1 1 1 1 1 1 1 1 2 2 1 1 1 2 2 2 3 4 2 3 4 6 8 11 11 10 10 9 8 7 7 6 5 3 3 2 4 5 4 5 8 9 7 7 7 6 5 5 4 2 1 2 2 0 2 5 7 8 8
1 1 2 1 0 1 1 2 2 2 2 1 2 2 2 1 1 1 1 1 1 1 1 1 2 2 1 1 1 1 1 1 1 1 2 1 2 1 1 2 2 2 3 3 3 2 3 5 6 8 9 10 11 11 10 9 9 9 8 7 5 4 4 5 6 6 6 5 5 6 7 8 8 7 5 5 3 2 3 4 3 1 2 4 6 6 7
1 1 0 1 1 2 2 1 1 1 1 1 1 2 1 0 1 2 1 1 1 2 2 2 1 1 1 1 1 1 1 2 2 1 1 1 2 1 1 2 3 3 2 1 2 4 5 6 7 9 10 10 10 10 9 9 9 10 9 8 6 6 6 7 7 8 8 5 3 4 6 7 7 8 6 4 4 5 6 5 3 2 3 4 5 5 6
2 1 1 1 2 3 2 1 2 2 1 1 2 2 1 1 3 3 1 1 1 1 1 1 1 1 1 1 1 1 1 1 1 1 1 2 2 1 1 2 3 2 1 1 2 5 6 7 8 9 9 9 9 9 9 9 9 9 9 9 8 6 7 8 8 9 10 7 5 3 4 6 7 8 6 5 7 7 7 5 4 3 4 4 4 5 6
1 1 1 2 2 2 2 1 2 2 1 1 0 1 1 2 3 2 2 2 2 1 1 1 1 0 1 1 1 1 1 1 1 1 2 2 2 1 1 3 3 3 3 4 4 6 6 7 7 8 8 9 9 9 9 9 9 9 10 11 10 8 7 8 8 9 11 12 8 5 6 7 8 6 6 8 9 8 7 6 5 4 4 4 4 5 6
0 1 2 3 3 3 1 0 1 2 2 1 2 2 1 2 3 2 2 2 1 1 1 1 1 1 1 1 1 1 0 1 1 2 2 2 1 1 4 5 5 5 5 6 6 6 6 6 7 7 8 9 10 10 10 10 10 11 12 13 12 10 8 7 8 9 12 14 12 8 7 7 6 7 10 12 10 8 7 6 5 5 4 4 5 5 6
1 1 2 2 3 3 2 2 2 3 3 3 3 2 1 2 2 1 1 1 1 1 1 1 1 1 0 0 0 0 0 1 1 2 2 1 1 2 4 5 5 5 5 6 7 6 6 6 7 7 9 9 9 10 12 12 11 11 12 13 13 12 7 7 8 9 11 12 10 7 6 7 8 11 13 12 8 7 6 6 5 5 5 5 5 6 6
Wind_Direction
3 8 11 11 11 9 7 6 5 8 13 15 16 27 50 38 16 353 357 360 92 80 58 55 54 60 70 62 29 26 31 12 6 8 12 25 41 41 40 34 36 46 49 60 73 67 57 39 48 96 77 46 25 330 332 338 342 2 25 10 358 5 44 65 90 87 111 182 199 349 14 13 60 43 26 19 14 355 340 359 101 129 122 137 142 125 114
3 7 12 13 12 11 9 8 7 8 14 15 14 43 94 34 219 346 11 27 92 95 60 92 82 64 63 64 45 38 46 29 22 21 22 21 23 47 46 32 40 51 47 64 72 38 58 64 46 68 85 41 360 340 349 2 18 21 15 351 347 12 11 49 122 128 154 193 208 195 102 43 50 34 14 18 22 15 6 323 322 116 59 322 172 136 116
3 6 12 14 14 12 11 11 10 11 16 20 26 89 166 24 171 288 12 31 56 73 41 99 99 91 73 62 43 29 60 48 24 24 33 27 19 52 53 19 38 66 70 72 59 30 44 88 88 61 82 60 343 349 355 5 25 34 33 18 348 48 30 331 171 159 179 176 154 152 108 27 47 27 11 19 20 11 3 209 170 128 114 341 59 119 126
3 5 11 14 14 14 13 12 13 13 16 28 44 66 148 27 43 320 359 24 42 51 13 43 88 96 74 65 39 21 38 35 2 24 38 26 27 51 51 2 20 55 62 73 60 40 45 73 109 117 79 70 12 335 342 7 18 22 33 30 24 109 66 11 27 57 85 105 86 56 7 31 62 22 14 22 16 2 351 200 63 118 127 91 55 108 134
3 5 10 14 15 15 15 14 15 15 14 25 54 53 47 92 53 352 345 17 25 42 34 19 55 84 53 67 32 19 32 28 10 28 38 19 21 51 54 27 28 49 57 76 67 43 48 62 73 80 51 37 339 307 326 7 6 5 21 17 9 117 82 26 51 67 72 86 89 82 47 54 43 12 10 17 14 7 18 65 62 13 132 113 109 130 134
3 5 9 14 14 15 17 16 18 20 14 17 60 64 13 59 108 296 310 2 11 27 15 12 52 65 58 77 52 33 46 46 29 23 37 26 10 34 61 37 30 42 50 88 76 39 48 60 52 49 45 14 335 350 1 10 4 7 28 19 16 99 89 51 81 88 86 82 81 71 48 51 32 339 353 2 12 21 38 63 49 333 39 108 149 160 133
2 7 10 14 14 15 18 19 22 27 25 33 64 78 9 59 110 50 335 58 62 4 329 348 54 58 44 55 57 49 55 56 45 360 22 42 18 21 64 38 21 32 34 80 88 51 54 75 58 18 55 36 9 18 12 8 5 10 37 38 13 70 93 105 114 107 93 66 47 35 18 12 350 343 355 345 360 27 43 45 12 344 56 102 143 146 125
359 7 11 15 17 16 18 21 26 31 41 56 62 50 356 66 102 27 72 80 42 357 333 350 56 49 24 51 60 53 57 59 60 16 21 53 35 30 72 62 34 35 46 66 75 52 51 79 82 164 129 48 58 42 315 348 8 11 27 36 355 349 107 111 127 123 98 41 360 5 358 354 10 41 52 65 100 95 100 100 104 207 93 119 142 139 129
355 5 12 16 19 19 19 22 28 31 45 68 69 37 14 72 86 329 113 75 6 1 9 357 49 51 27 47 59 64 61 61 82 60 33 47 63 55 87 87 63 45 53 60 57 35 16 53 55 135 181 34 54 50 306 241 338 17 27 6 360 35 118 120 161 157 117 50 331 348 4 59 111 83 68 72 87 89 85 85 76 60 102 133 151 153 146
350 2 13 17 21 23 21 23 29 33 46 69 85 49 18 85 108 30 102 89 10 8 18 342 53 66 15 21 49 57 69 118 175 101 62 39 57 79 144 114 80 63 59 49 27 360 315 21 40 67 72 62 63 54 71 83 359 12 44 24 12 48 127 133 176 180 141 143 316 333 323 176 150 101 68 54 55 66 91 90 64 31 27 133 144 124 123
347 357 11 18 23 26 26 27 30 34 43 56 74 89 14 345 115 55 77 98 65 16 42 29 54 70 352 68 89 85 88 89 73 82 86 48 44 93 148 108 89 75 60 41 27 78 99 90 83 83 72 69 67 56 62 62 37 15 359 36 61 103 117 122 168 172 151 173 313 295 223 201 131 91 54 1 353 5 58 73 55 33 338 47 77 93 104
345 351 6 17 23 29 31 32 33 36 40 46 57 73 57 3 29 67 94 102 93 59 91 64 7 359 309 116 99 83 84 81 50 50 102 89 79 108 81 68 87 71 70 119 139 118 108 96 83 77 67 64 64 56 50 45 32 18 10 28 120 133 116 112 127 138 145 162 222 213 207 146 89 63 3 332 295 284 287 342 66 114 131 91 94 99 101
343 345 359 12 21 29 33 35 37 38 39 40 46 55 49 26 35 74 73 101 110 82 97 87 340 333 332 118 104 88 81 86 68 62 91 89 89 88 60 54 55 25 97 139 135 119 108 86 74 79 64 49 57 55 44 31 19 14 15 17 23 168 148 128 114 110 138 163 193 202 151 55 50 321 355 119 127 150 221 174 104 95 92 104 103 100 104
341 343 351 4 16 25 32 35 39 40 38 38 42 48 45 35 32 48 84 96 106 111 121 128 244 252 174 93 98 112 105 96 91 80 72 72 84 88 79 32 5 340 181 149 114 89 123 116 122 135 79 351 287 65 44 31 21 15 8 3 3 16 168 158 164 183 168 173 174 95 55 204 198 151 103 112 87 72 302 209 111 99 76 91 110 104 97
338 340 345 355 8 18 26 33 39 42 40 37 38 44 44 38 31 40 99 111 117 141 207 185 163 174 174 118 121 154 129 120 137 109 66 358 109 120 99 17 6 121 161 152 88 89 139 183 185 172 182 228 233 190 27 31 37 25 10 3 22 36 346 242 201 164 181 200 148 150 190 199 173 151 137 129 97 94 73 282 148 128 115 107 123 117 87
336 335 340 346 354 5 17 27 34 37 36 36 37 40 42 37 30 35 53 83 114 126 217 185 157 146 145 145 290 261 166 167 167 146 152 184 207 186 171 2 359 123 127 93 80 94 106 177 185 187 191 175 144 119 21 264 154 53 25 22 57 66 39 341 191 159 178 212 207 189 198 157 136 156 160 164 180 175 197 252 207 142 138 149 145 124 88
334 330 334 338 340 350 2 13 27 29 24 31 38 38 37 33 25 23 32 66 55 17 146 145 134 130 155 176 213 228 150 133 131 181 185 175 182 239 218 42 38 65 94 106 119 119 116 122 141 212 188 125 129 164 125 177 199 169 106 46 69 74 49 357 219 187 172 205 234 236 243 184 140 162 163 156 166 177 209 257 190 153 165 176 151 131 91
333 327 327 330 329 334 343 352 9 21 18 25 35 36 33 29 24 24 37 113 5 321 193 169 160 169 203 195 172 157 137 120 161 207 143 125 188 207 167 150 123 68 24 182 164 152 155 152 177 226 176 145 178 201 131 168 190 153 135 108 72 52 30 5 259 228 190 209 237 263 267 227 156 168 168 155 161 188 228 278 128 154 175 174 162 163 156
333 326 323 323 323 325 325 331 343 360 10 13 25 38 31 23 26 31 40 92 23 340 181 177 191 187 141 106 89 116 130 62 143 175 178 177 166 122 93 105 224 5 39 132 158 162 188 181 162 239 194 166 182 192 150 165 164 131 139 152 165 171 159 166 235 215 186 214 250 275 276 205 138 145 152 164 187 208 207 86 123 159 171 172 188 203 196
335 326 318 315 318 321 318 315 318 325 338 350 20 89 52 13 28 37 42 85 218 298 237 197 214 207 179 187 194 164 176 222 201 196 212 173 123 160 177 173 178 154 135 163 157 167 210 183 133 184 217 168 157 178 178 189 191 172 178 220 209 176 179 191 185 166 148 184 213 254 304 123 140 141 147 194 225 142 105 128 161 179 179 184 203 214 217
336 326 314 308 312 318 321 320 314 311 308 304 290 164 191 309 7 30 39 88 139 311 264 199 214 217 212 223 229 209 201 197 172 186 231 149 144 218 230 150 151 160 159 169 156 161 220 181 136 168 215 122 150 187 188 210 214 195 209 269 214 192 203 207 184 178 176 179 191 216 352 139 167 165 155 180 174 120 130 166 182 186 196 207 212 215 223
335 327 314 304 303 310 322 327 318 314 306 285 264 220 217 241 251 281 320 302 231 253 268 260 256 255 255 255 250 244 244 242 232 237 228 140 167 238 299 127 197 191 132 144 165 140 172 166 161 176 169 166 192 193 189 229 215 161 179 226 224 205 200 207 197 194 205 231 221 220 1 227 207 223 160 136 139 135 161 197 199 190 198 210 223 230 231
334 327 314 302 296 298 313 325 324 321 319 314 305 273 251 248 240 253 288 295 261 257 263 268 272 272 272 269 256 247 248 250 250 245 235 218 190 213 226 235 237 124 135 199 224 182 176 176 159 175 189 189 193 187 198 238 237 169 181 214 240 195 127 151 215 189 242 262 239 217 246 243 227 236 231 169 158 165 183 205 216 207 201 203 221 245 250
334 326 313 303 294 289 297 313 320 321 325 330 334 320 298 284 257 245 252 260 346 294 259 258 273 261 223 13 308 267 250 243 245 241 231 220 211 230 235 211 203 188 189 209 194 84 131 150 111 215 224 195 182 197 217 229 221 189 184 207 217 178 174 199 214 180 218 241 203 200 230 233 222 229 235 232 236 222 199 212 222 218 216 215 221 239 251
333 325 313 302 293 288 289 298 310 319 327 332 331 316 305 294 248 168 173 148 51 34 281 297 244 139 56 341 318 291 261 243 241 237 224 212 212 230 242 154 183 214 200 161 155 142 158 150 136 208 226 197 189 210 229 229 203 187 199 222 212 169 175 198 214 205 218 249 228 204 243 248 238 238 241 242 239 216 196 209 222 226 232 227 222 227 235
331 322 311 300 293 287 285 291 307 318 324 327 322 303 293 276 213 170 151 100 96 119 294 296 204 135 347 334 318 291 267 253 241 236 231 222 220 228 231 155 165 175 102 117 175 192 181 150 163 205 221 206 204 213 212 190 149 175 217 235 112 131 165 186 196 204 231 262 257 233 246 260 243 231 231 235 236 219 204 207 218 229 235 231 223 221 226
330 323 309 295 290 284 280 288 301 304 313 323 322 301 286 274 234 190 172 158 140 176 278 274 257 324 331 324 322 340 338 280 248 235 237 236 229 227 227 218 202 170 136 136 154 173 178 194 205 211 206 181 193 212 219 170 137 198 234 205 133 159 187 174 169 207 229 247 231 202 222 263 243 214 220 225 223 221 220 215 214 221 226 230 232 232 230
329 323 307 291 284 277 272 275 282 292 309 323 324 309 292 278 249 206 188 181 167 345 288 269 292 313 318 306 318 339 346 314 282 250 237 235 227 223 222 219 216 207 186 181 174 181 210 222 210 185 158 162 184 195 182 159 207 239 239 192 173 198 201 177 193 229 243 251 228 183 202 261 263 198 205 212 199 200 213 218 219 223 225 228 236 245 248
327 320 305 289 279 272 267 265 274 295 318 337 342 340 340 349 288 209 194 182 146 83 315 292 287 294 312 309 311 325 345 334 302 271 251 237 222 217 216 214 215 218 207 199 196 188 201 226 216 150 154 161 158 152 195 220 234 241 234 198 194 208 204 193 208 229 249 258 245 187 198 242 254 180 191 196 178 187 207 216 219 223 230 232 235 246 255
325 316 303 289 279 272 265 261 267 287 319 347 1 359 158 89 25 199 189 178 146 94 13 314 294 294 326 315 299 312 344 357 5 13 315 239 219 215 210 202 200 196 178 236 246 166 146 220 237 213 152 145 128 97 237 237 249 248 229 207 206 211 215 217 221 227 241 252 223 168 211 239 248 114 212 202 181 188 208 220 217 219 228 230 229 239 248
322 314 303 291 281 269 260 261 269 288 326 29 67 331 242 162 10 285 183 172 152 108 36 280 283 295 311 293 274 316 342 10 78 77 68 69 85 163 167 156 143 147 153 339 248 192 207 205 192 191 166 161 166 212 226 233 258 258 216 194 201 209 216 225 227 230 242 250 109 129 223 233 181 201 237 209 190 194 205 218 220 219 226 230 231 239 248
319 311 302 291 282 267 258 275 281 291 315 233 202 241 220 153 38 167 170 166 157 118 348 309 310 316 338 339 309 321 337 27 94 67 60 65 64 103 131 116 119 169 186 197 192 192 207 206 207 222 189 166 176 219 228 230 250 256 221 171 190 211 219 229 233 235 239 231 174 202 243 229 201 217 231 193 179 191 202 218 224 217 225 236 237 240 247
312 306 297 286 283 280 292 308 301 306 337 305 247 244 217 199 172 141 156 162 158 135 199 307 322 315 320 327 332 345 344 344 86 33 24 42 61 131 134 87 101 185 193 197 198 196 196 199 217 237 211 167 180 238 245 233 244 256 258 229 219 221 222 230 237 240 239 217 197 220 245 235 190 206 219 188 175 188 199 213 217 206 219 235 239 246 255
308 307 298 284 348 15 31 48 68 79 65 29 21 37 184 203 192 161 159 161 154 183 197 249 310 310 311 307 316 36 9 342 298 350 14 44 65 195 178 127 133 190 200 198 199 219 207 181 187 210 205 171 186 236 255 248 246 253 261 257 244 234 230 235 238 237 233 214 204 220 235 157 114 155 187 186 188 191 193 202 207 216 232 239 245 259 269
306 308 105 89 68 63 78 86 82 67 57 30 5 36 126 200 196 173 162 153 92 272 209 225 252 273 317 313 288 17 1 338 321 344 350 55 55 358 223 176 209 229 197 172 191 220 202 174 168 186 190 186 209 231 250 259 258 258 259 254 242 221 216 234 240 231 217 201 202 215 214 181 175 189 187 186 198 197 194 207 215 223 240 252 260 267 271
347 105 105 94 82 77 83 88 76 44 37 33 35 55 94 151 172 175 173 164 339 291 262 321 260 231 282 303 291 325 335 309 348 54 260 165 46 17 5 249 250 230 143 170 220 230 188 151 172 200 195 206 231 237 244 260 269 272 266 255 236 211 221 242 248 227 186 181 187 193 191 195 205 207 193 197 205 189 189 218 224 221 235 251 259 264 270
125 113 105 97 89 86 91 79 58 81 104 100 85 84 98 121 147 173 192 238 282 249 243 290 273 249 253 269 279 340 348 326 355 20 322 273 50 27 358 277 271 291 188 225 241 227 135 150 203 236 230 229 246 257 260 266 272 274 269 262 246 223 228 242 232 173 155 161 169 173 178 190 198 197 197 213 210 184 194 227 237 235 242 253 260 267 280
127 117 106 96 93 106 114 114 124 135 133 118 98 96 117 133 143 174 198 222 237 224 207 244 258 249 238 247 250 9 5 331 343 4 298 272 253 223 203 239 294 313 275 265 272 94 138 186 214 247 256 255 261 269 271 271 273 273 269 266 255 231 218 210 188 174 166 163 170 176 178 190 201 204 209 223 225 213 214 233 244 245 248 255 265 278 291
122 114 104 95 99 95 86 100 133 152 156 148 114 260 203 175 172 188 185 198 231 222 198 227 248 237 222 237 251 231 127 262 273 247 221 224 267 258 231 265 333 308 281 277 173 149 231 246 226 252 270 267 266 274 280 282 287 286 279 269 257 234 206 187 186 187 183 180 184 184 184 195 210 212 207 214 224 228 231 236 242 246 248 255 267 284 296
123 113 110 106 113 116 108 110 126 142 155 185 222 224 209 190 196 199 184 207 234 225 202 224 251 237 224 243 262 246 177 194 251 275 254 227 262 273 255 266 333 286 279 276 173 181 259 269 239 251 266 269 291 310 309 294 293 296 292 277 257 231 204 192 194 194 189 174 160 169 179 190 202 209 212 213 219 235 247 247 250 254 254 258 274 291 300
133 132 135 140 143 141 136 134 136 141 161 224 233 214 193 200 202 203 205 225 239 234 207 212 239 237 217 222 233 231 206 181 154 292 263 236 146 251 247 224 143 269 270 261 171 192 251 255 243 249 250 255 304 317 315 306 307 310 306 285 252 225 208 197 192 189 184 165 148 160 175 185 193 205 213 211 217 239 253 261 267 264 255 264 287 300 305
145 141 135 144 164 164 159 162 155 155 178 221 266 295 288 249 235 230 227 233 251 245 192 195 222 248 183 186 206 224 208 154 150 207 232 228 256 272 258 149 137 236 260 241 160 215 246 246 246 247 245 275 313 319 323 326 327 323 314 294 252 218 206 196 189 188 187 181 173 174 182 189 196 206 209 206 213 231 244 258 268 266 264 287 304 308 310
144 137 129 137 136 148 173 187 173 173 177 108 65 332 256 241 230 230 229 227 237 233 193 186 195 146 143 175 196 197 131 144 165 201 221 169 78 288 258 210 186 224 249 186 196 226 236 235 237 238 293 349 330 325 329 332 331 323 309 288 253 228 214 200 190 190 191 186 183 184 192 198 201 199 196 197 206 224 239 250 258 263 285 305 308 310 314
139 121 109 158 144 137 170 201 187 199 210 190 171 205 223 216 197 207 217 212 205 210 195 169 178 213 207 178 167 160 151 140 130 183 202 176 150 196 237 241 230 221 217 212 227 245 250 245 246 290 2 346 328 325 328 328 330 327 312 285 248 233 227 214 197 186 183 184 187 188 190 194 188 179 182 189 199 222 245 248 230 241 293 309 313 317 322
137 88 57 124 175 256 309 288 248 229 226 216 205 210 222 217 174 191 205 151 126 127 80 124 212 239 241 169 169 192 167 152 193 207 182 193 213 216 225 241 246 240 241 245 252 256 259 269 333 360 348 333 325 326 326 323 324 324 313 294 259 231 237 252 250 218 185 179 186 189 187 184 179 177 183 190 195 217 248 246 185 232 299 317 324 327 331
132 96 96 129 234 275 261 203 204 218 218 211 205 208 219 228 213 201 156 105 148 207 265 201 222 238 237 156 149 176 152 169 204 174 131 190 237 230 211 239 254 244 241 240 240 243 272 358 4 347 335 330 328 327 327 324 324 324 315 298 273 227 183 208 270 276 253 205 191 186 180 176 175 177 186 191 189 199 215 176 154 146 328 333 333 333 337
130 97 81 95 200 276 249 218 221 231 230 224 227 226 227 240 272 268 249 189 220 274 279 190 208 243 242 164 188 188 159 186 228 181 152 218 258 260 212 243 247 233 226 231 243 273 341 353 338 325 327 329 325 321 323 325 327 329 322 303 280 250 203 185 196 225 246 246 214 181 172 171 170 173 185 189 169 131 130 143 140 101 7 353 345 341 345
165 135 94 170 208 228 220 216 257 269 238 230 257 249 221 186 279 264 228 178 209 266 249 208 205 217 178 172 222 217 157 187 223 205 173 235 271 282 242 250 249 238 228 242 328 340 333 323 315 316 321 320 316 318 321 320 320 321 318 308 293 268 245 227 203 191 197 204 186 166 170 172 172 177 183 166 118 112 127 135 125 82 40 23 10 2 360
123 101 130 188 222 233 221 248 310 297 265 256 287 282 251 252 271 272 227 163 184 231 219 207 231 242 164 147 204 213 190 204 228 204 187 232 247 252 278 269 263 265 292 356 341 319 310 309 313 314 313 310 311 316 316 312 311 312 311 310 307 286 255 239 216 185 168 156 145 162 182 183 184 187 176 140 121 125 131 127 114 91 59 39 31 22 13
92 76 203 214 238 238 205 195 266 274 286 57 281 252 254 276 282 267 194 177 174 144 144 159 191 199 148 144 228 232 222 207 191 213 248 257 244 230 271 275 282 308 332 331 317 306 307 314 317 312 308 309 311 312 312 313 312 310 308 308 306 293 267 246 225 191 162 152 157 184 199 199 200 190 152 130 131 134 129 118 107 92 70 54 46 37 23
30 283 234 231 244 250 242 277 280 277 284 276 242 221 236 273 273 251 189 174 163 142 162 181 154 121 143 228 276 288 133 142 173 236 274 278 220 251 280 294 316 335 330 321 319 317 314 315 318 317 316 316 315 314 317 319 317 316 317 315 307 295 272 241 216 183 158 155 168 190 203 204 194 156 132 132 136 136 127 118 108 93 79 69 56 40 28
198 253 265 256 245 241 250 275 276 264 259 254 245 221 203 233 248 224 133 149 215 224 152 130 119 134 197 248 318 48 196 213 238 276 292 267 210 292 307 319 336 338 322 318 324 324 317 317 322 321 317 315 315 317 319 318 316 317 320 315 308 300 276 218 190 167 152 157 172 193 197 182 157 138 135 141 145 139 130 123 114 104 93 76 61 46 34